Regional Weather Roundup
Issued by NWS Green Bay, WI

Home | Current Version | Previous Version | Text Only | Print | Product List | Glossary On
Versions: 1 2 3 4 5 6 7 8 9 10 11 12 13 14 15 16 17 18 19 20 21 22 23 24 25 26 27 28 29 30 31 32 33 34 35 36 37 38 39 40 41 42 43 44 45 46 47 48 49 50
000
ASUS43 KGRB 120211
RWRGRB

NORTH-CENTRAL AND NORTHEAST WISCONSIN REGIONAL WEATHER ROUNDUP
NATIONAL WEATHER SERVICE GREEN BAY WI
800 PM CST THU FEB 11 2016

WIZ005-009-010>012-018-019-120300-
NORTH CENTRAL WISCONSIN

CITY           SKY/WX    TMP DP  RH WIND       PRES   REMARKS
IRONWOOD       CLOUDY    10  -2  56 W15       30.08F WCI  -6
MANITOWISH WTR CLOUDY    10  -5  49 W9        30.08S WCI  -2
ARBOR VITAE    CLOUDY    14  -3  47 W8        30.08S WCI   3
EAGLE RIVER    CLOUDY    11  -5  47 W10       30.06S WCI  -2
LAND O LAKES   CLOUDY    11  -3  51 W7        30.06F WCI   1
RHINELANDER    CLOUDY    11  -5  48 W13       30.08F WCI  -4
PHILLIPS       CLOUDY    10  -5  50 W8        30.11F WCI  -1
ANTIGO         CLOUDY    10  -4  54 W13       30.11F WCI  -5
TOMAHAWK       CLOUDY    11  -5  47 W6        30.12F WCI   2
MERRILL        CLOUDY    12  -4  48 W12       30.15F WCI  -2
$$

WIZ013-073-120300-
NORTHEAST WISCONSIN

CITY           SKY/WX    TMP DP  RH WIND       PRES   REMARKS
IRON MOUNTAIN  CLOUDY    15  -5  40 W7        30.06F WCI   5
MARINETTE      CLOUDY    14  -2  48 SW7       30.14F WCI   4
OCONTO         CLOUDY    13  -3  48 SW6       30.17F WCI   4
$$

WIZ017-030-035>037-045-120300-
CENTRAL WISCONSIN

CITY           SKY/WX    TMP DP  RH WIND       PRES   REMARKS
MEDFORD        CLOUDY    11  -3  52 W7        30.13F WCI   0
WAUSAU         CLOUDY    13   0  56 W7        30.15F WCI   3
MOSINEE        CLOUDY    12  -2  52 W9        30.17S WCI   0
MARSHFIELD     CLOUDY    14  -3  47 W8        30.16F WCI   3
WISC RAPIDS    CLOUDY    15  -3  44 W6        30.21S WCI   6
STEVENS POINT  CLOUDY    13  -3  49 W3        30.19S
WAUPACA        CLOUDY    17  -1  46 SW5       30.21S WCI   9
SHAWANO        CLOUDY    17  -3  41 W6        30.19S WCI   8
CLINTONVILLE   CLOUDY    14  -2  48 SW6       30.18F WCI   5
WAUTOMA        CLOUDY    14  -3  47 SW7       30.22F WCI   4
$$

WIZ038-039-048-051-120300-
FOX VALLEY

CITY           SKY/WX    TMP DP  RH WIND       PRES   REMARKS
NWS GREEN BAY  CLOUDY    15   0  51 SW7       30.20F WCI   5
APPLETON       MOCLDY    14  -4  44 SW6       30.18F WCI   5
OSHKOSH        CLOUDY    14  -1  51 SW5       30.21F WCI   6
FOND DU LAC    CLOUDY    13   0  56 SW8       30.23S WCI   2
$$

WIZ022-050-052-120300-
EAST CENTRAL WISCONSIN

CITY           SKY/WX    TMP DP  RH WIND       PRES   REMARKS
EPHRAIM        CLOUDY    13   1  59 W8G17     30.13F WCI   2
STURGEON BAY   CLOUDY    14  -4  44 SW12      30.18F WCI   0
MANITOWOC      CLOUDY    12   1  61 SW7       30.22F WCI   1
SHEBOYGAN      CLOUDY    12   0  58 SW8       30.22F WCI   0
$$

LMZ563-521-522-541>543-120300-
LAKESHORE

STATION/POSITION TIME  TEMP    WIND        PRES    VSBY  WAVE
                       AIR SEA DIR/SP/G                  HT/PER
                 (UTC) (F)     (DEG/KT/KT) (MB)    (MI)  (FT/S)
SHEBOYGAN LKSHOR 0200   14     220/  8/  9 1025.5F
KEWAUNEE LKSHORE 0100   13                 1022.0R
ALGOMA MARINA    0111          280/  2/  5   N/A
CHAMBERS ISLAND  0100   16     200/  7/ 11 1021.3S
MENOMINEE LKSHOR 0100   16                 1020.5R
$$



USA.gov is the U.S. government's official web portal to all federal, state and local government web resources and services.